Tracking 27419 objects as of 10-Jun-2023
HD Live streaming from Space Station
objects crossing your sky now

SL-12 R/B(2)

Track SL-12 R/B(2) now!


NORAD ID: 11568
Int'l Code: 1975-123F
Perigee: 35,647.9 km
Apogee: 35,803.2 km
Inclination: 5.4 °
Period: 1,432.6 minutes
Semi major axis: 42096 km
RCS: 3.1622 m2 (large)
Launch date: December 22, 1975
Source: Commonwealth of Independent States (former USSR) (CIS)
Launch site: TYURATAM MISSILE AND SPACE COMPLEX (TTMTR)

Note: This is a ROCKET BODY
Your satellite tracking list
Your tracking list is empty




NASA's NSSDC Master Catalog

Two Line Element Set (TLE):
1 11568U 75123F   23160.41838903 -.00000064  00000-0  00000-0 0  9998
2 11568   5.3884 282.3353 0018454 180.9075  11.5009  1.00515490110901
Source of the keplerian elements: AFSPC